Temperature
15 15 16 16 16 16 16 16 16 16 16 16 16 16 16 16 15 15 15 15 15 15 15 15 15 16 16 16 16 16 16 16 16 16 17 17 17 17 17 17 17 17 17
16 16 16 16 16 16 16 16 16 16 16 16 16 15 15 15 15 15 14 14 14 15 15 15 15 15 16 16 16 16 16 16 16 16 17 18 18 17 17 17 17 17 17
17 16 16 16 16 15 16 16 16 16 16 16 15 15 15 15 15 15 14 14 14 14 14 15 15 15 15 16 16 16 15 16 16 16 17 18 20 20 18 17 17 16 17
17 17 16 16 16 15 15 15 15 15 15 15 15 14 14 14 14 14 14 14 14 14 14 14 15 15 15 15 15 15 15 15 16 16 16 17 18 18 19 17 16 16 16
17 17 16 16 16 15 15 15 15 15 15 14 14 14 14 14 14 13 13 13 13 14 14 14 14 15 15 15 15 15 15 15 15 16 16 16 16 16 17 19 17 16 16
17 17 16 16 16 15 15 15 14 14 14 13 13 13 13 13 13 13 13 13 13 13 13 13 13 14 14 14 14 15 15 15 15 15 16 16 16 16 17 18 17 17 17
18 17 16 16 15 15 15 14 13 13 13 13 13 12 12 12 12 12 12 12 12 12 12 12 12 13 13 13 13 14 14 14 15 15 15 16 16 17 17 17 18 17 17
18 17 16 16 15 15 14 14 13 12 12 12 12 12 12 12 12 12 12 12 12 12 12 11 11 12 12 12 12 13 13 14 14 14 14 15 15 16 16 16 17 17 17
17 17 16 16 15 14 13 13 12 12 12 11 11 11 11 11 11 11 11 11 11 11 11 11 11 11 11 11 11 12 12 13 13 14 14 14 15 15 15 15 16 17 18
17 17 16 15 14 13 13 12 12 11 11 11 10 11 10 10 10 10 10 10 10 10 10 10 10 10 10 10 10 11 11 12 12 13 13 14 14 14 14 15 15 15 16
17 16 15 14 13 13 12 12 11 11 10 10 10 9 9 9 9 9 9 9 9 9 9 10 10 10 10 10 10 10 10 11 11 12 12 13 13 14 14 14 14 15 15
16 15 14 13 13 12 12 11 10 10 10 9 9 8 8 8 8 8 8 8 8 8 9 9 9 9 10 10 10 10 10 10 10 11 11 12 12 13 13 14 14 14 14
15 14 13 13 12 11 11 10 9 9 9 8 8 8 8 8 8 8 7 7 7 8 8 8 9 9 9 9 9 9 10 10 10 10 10 11 11 12 13 13 13 14 14
14 13 13 12 11 10 10 9 9 8 8 8 7 7 7 7 7 7 7 7 7 7 7 8 8 8 9 9 9 9 9 9 9 10 10 10 11 11 12 12 13 13 13
14 13 12 11 10 10 9 9 8 8 7 7 7 7 7 6 6 6 6 6 6 6 7 7 7 8 8 9 9 9 9 9 9 9 9 10 10 10 11 11 12 12 13
13 12 11 10 10 9 8 8 8 7 7 6 6 6 6 6 6 6 6 6 6 6 6 6 7 7 8 9 9 9 9 9 9 9 9 9 9 10 10 10 11 12 12
12 11 10 10 9 9 8 8 7 7 6 6 6 6 6 6 6 6 6 5 5 5 5 6 6 7 7 8 8 9 9 9 9 9 9 9 10 9 9 10 10 11 11
11 10 10 9 9 8 8 7 7 7 6 6 6 6 6 6 6 5 5 5 5 5 5 5 6 6 7 7 8 8 8 8 9 9 9 9 9 9 9 9 10 10 11
10 10 9 9 8 8 7 7 7 6 6 6 6 6 5 5 5 5 5 5 5 5 5 5 5 6 6 6 7 8 7 8 8 9 9 9 9 9 9 9 9 10 10
10 9 9 8 8 7 7 6 6 6 6 6 6 5 5 5 5 5 5 5 5 5 5 5 5 6 6 6 7 7 7 8 8 8 9 9 9 9 9 9 9 9 10
9 9 8 8 8 7 6 6 6 6 6 6 6 6 5 5 5 5 5 5 5 5 5 5 5 5 6 6 6 6 7 8 8 9 9 9 9 9 9 9 9 9 10
9 9 8 8 7 7 6 6 6 6 6 6 6 6 6 6 5 5 5 5 5 5 5 5 5 5 5 6 6 6 7 7 8 8 9 9 9 9 9 9 9 9 9
9 8 8 7 7 7 6 6 6 6 6 6 6 6 6 6 6 6 6 5 5 5 5 5 5 5 5 6 6 6 7 7 7 8 8 8 8 8 8 9 9 9 9
9 8 8 7 7 7 6 6 6 6 6 6 6 6 6 6 6 6 6 6 5 5 5 5 5 5 5 6 6 6 6 7 7 7 7 8 8 8 8 8 9 9 9
8 8 7 7 7 7 6 6 6 6 6 6 6 6 6 6 6 6 6 6 6 5 5 5 5 5 5 6 6 6 6 7 7 7 7 7 8 8 8 8 9 9 9
8 8 7 7 7 6 6 6 6 6 6 6 6 6 6 7 7 7 6 6 6 6 6 6 5 5 5 6 6 6 6 6 7 7 7 8 8 8 9 9 9 9 9
Wind_Speed
6 6 6 5 5 5 5 5 6 6 6 6 7 8 8 7 7 7 8 9 8 7 6 6 7 7 7 8 9 8 9 9 8 8 9 10 11 11 10 11 11 12 13
6 5 5 5 5 5 5 5 6 7 7 6 6 6 7 7 6 6 7 9 9 7 5 5 6 7 7 7 7 8 8 8 8 8 8 8 9 9 11 10 10 11 10
5 4 4 4 4 4 5 5 6 7 7 8 7 7 6 6 7 8 7 8 9 9 7 6 6 7 7 7 7 8 11 9 9 10 8 7 7 6 7 8 9 9 8
3 2 2 2 4 5 5 6 7 7 8 8 8 9 9 9 8 8 7 8 8 8 7 6 7 7 6 7 8 9 10 11 10 9 9 9 6 5 5 8 9 9 8
1 1 3 4 6 7 8 8 9 9 9 9 9 9 10 9 9 9 8 8 7 7 7 7 7 7 6 7 8 8 10 10 11 9 8 9 7 9 7 6 7 8 8
3 4 6 7 8 9 10 11 11 11 11 11 11 11 11 11 12 11 10 9 7 6 6 6 5 5 6 6 7 9 11 11 11 10 9 8 8 9 9 8 7 7 7
6 7 9 10 11 12 12 12 13 13 13 13 13 13 13 14 14 13 12 11 10 8 6 6 5 5 5 6 6 8 10 11 12 11 10 10 9 8 8 8 7 6 5
8 9 10 11 12 13 13 13 14 14 15 15 14 14 14 14 14 14 14 14 12 11 9 8 7 7 7 7 6 7 9 9 11 13 12 10 10 9 9 8 7 7 7
9 11 12 13 13 14 14 15 15 16 16 16 16 15 15 15 16 16 15 15 13 12 12 11 10 9 8 8 7 7 8 8 10 11 13 12 10 10 10 9 9 8 7
11 13 14 14 13 14 15 16 16 16 17 17 16 15 16 16 16 16 17 16 16 15 15 15 13 12 11 10 9 8 8 9 9 8 12 12 11 10 10 10 10 9 8
14 14 14 14 14 16 17 17 17 18 18 18 17 17 17 17 17 17 17 17 16 16 16 16 15 15 14 13 11 11 10 10 10 9 10 13 13 10 11 11 10 10 9
14 15 15 15 16 17 18 18 18 19 19 18 18 18 18 18 18 18 18 17 17 17 17 17 16 16 16 15 14 13 13 12 12 11 10 10 10 14 12 10 12 11 10
15 15 15 16 17 17 18 18 19 19 19 19 19 19 19 19 19 19 18 18 18 17 17 17 17 17 17 16 16 15 14 13 13 12 11 10 10 11 11 13 12 11 11
15 15 16 17 17 18 18 18 19 18 19 18 19 19 19 19 19 19 19 19 18 18 18 18 18 18 18 18 17 16 15 14 13 12 11 11 10 10 9 10 12 11 11
15 16 17 18 18 18 18 18 18 18 18 18 19 19 19 19 19 19 19 19 18 19 18 18 18 18 18 18 18 17 17 15 14 13 13 12 12 11 8 7 8 9 10
16 18 19 19 19 18 18 18 18 18 18 19 19 19 19 19 19 20 19 19 19 19 18 18 19 19 18 16 15 16 16 15 15 14 13 12 13 13 13 11 9 8 9
18 19 19 18 18 18 18 18 18 18 18 18 19 19 19 20 20 20 20 19 19 18 18 18 18 18 18 14 13 16 17 16 15 14 13 12 12 13 12 13 13 11 10
18 18 18 19 18 18 17 17 17 18 18 18 19 19 20 20 20 20 19 19 17 16 16 16 16 16 16 14 14 14 17 17 16 15 14 13 11 12 11 11 12 12 11
17 17 17 18 18 17 17 17 17 18 18 18 19 19 20 20 20 19 19 17 15 14 14 14 14 14 13 13 14 14 14 15 17 16 16 15 14 11 11 11 13 13 11
16 16 17 17 17 16 17 17 17 18 18 18 19 19 19 19 19 19 17 15 13 13 12 12 12 12 12 12 14 14 12 14 14 14 15 14 13 11 13 12 12 13 12
17 16 16 16 15 16 16 17 17 17 18 18 18 18 18 18 18 16 14 13 12 11 10 10 9 9 9 11 14 14 12 12 13 12 12 13 16 13 13 12 11 10 9
17 16 15 16 15 15 15 17 17 17 17 18 18 18 17 16 15 14 13 12 11 9 7 7 6 5 7 9 12 15 14 11 11 11 10 9 17 15 13 12 10 7 7
16 15 16 16 15 15 15 16 17 17 17 18 18 17 16 15 14 13 12 10 8 6 5 4 4 4 5 7 11 13 13 11 10 9 3 6 13 12 11 12 10 9 9
15 15 16 16 16 16 16 16 16 16 16 17 17 16 15 14 13 10 9 9 8 6 4 3 3 3 4 6 8 10 10 11 11 10 7 9 9 9 7 9 10 10 10
15 15 15 15 16 16 16 16 15 15 16 16 16 15 13 12 11 10 8 8 7 6 6 4 3 2 2 2 1 4 7 8 10 10 9 10 10 11 11 10 10 10 11
15 15 15 16 16 16 16 16 15 14 15 14 14 12 11 11 10 9 7 1 3 2 3 4 5 2 1 2 1 1 1 1 4 7 9 10 10 11 11 11 10 10 10
Wind_Direction
76 69 66 62 59 49 38 24 12 1 350 349 343 341 337 334 334 338 340 329 315 300 282 276 266 260 252 242 235 232 235 234 233 242 246 238 234 232 234 234 238 233 232
93 82 72 64 52 44 33 21 11 1 352 353 337 332 331 330 340 346 345 347 341 323 298 287 284 267 260 251 243 235 244 240 224 236 245 243 228 220 228 227 226 234 227
97 90 74 56 43 30 16 5 355 347 349 341 336 338 332 331 341 345 348 352 350 346 336 310 293 279 269 259 249 238 238 242 231 229 241 245 242 217 199 214 221 219 224
114 95 58 22 6 357 348 343 338 337 334 328 336 338 334 333 336 333 339 339 344 347 349 338 322 306 286 269 255 242 239 238 236 224 234 254 288 262 209 194 201 208 218
158 335 337 336 332 331 331 329 329 326 322 317 311 308 314 321 322 326 326 325 331 338 345 347 339 326 306 286 269 256 241 233 237 234 222 223 228 241 259 223 192 199 209
273 300 312 316 318 321 322 322 323 320 316 308 302 297 299 303 308 310 312 312 314 317 324 324 326 318 308 298 279 262 245 241 241 242 236 225 221 221 227 234 222 214 207
283 297 307 313 317 319 322 322 321 319 317 310 302 296 293 292 289 293 299 300 299 297 297 301 302 300 296 293 288 273 259 245 239 235 235 235 234 234 228 234 229 223 208
292 301 307 312 313 317 321 321 321 318 316 312 308 302 295 290 291 294 296 294 291 289 286 276 270 273 278 279 274 274 269 256 244 239 237 237 233 229 227 230 229 222 215
300 304 309 313 314 319 322 320 318 315 313 311 307 298 295 294 294 293 285 283 283 282 277 270 264 258 256 260 264 263 267 269 256 245 237 236 236 229 226 226 230 232 224
308 311 314 315 317 318 318 317 315 313 312 310 309 306 305 299 294 290 289 287 284 279 276 270 264 259 252 246 248 255 255 258 262 260 249 237 236 229 224 222 223 228 238
316 317 316 317 317 316 317 317 316 314 312 311 310 307 304 301 298 292 287 284 280 277 272 267 264 260 254 247 242 246 247 248 250 253 255 246 239 232 223 220 219 220 222
316 316 317 319 318 317 318 317 315 313 311 311 308 305 304 301 298 295 293 289 283 277 272 266 261 257 253 247 242 241 243 242 244 243 244 251 245 235 230 222 219 217 215
318 317 318 319 317 317 316 314 312 311 312 311 309 306 304 302 300 298 295 291 286 280 273 267 260 254 251 248 242 238 238 239 241 241 239 239 242 241 232 226 220 216 210
318 318 318 316 317 315 314 313 311 312 312 312 309 306 305 303 301 299 296 291 286 280 273 266 259 253 248 245 241 237 234 234 236 237 237 235 234 238 239 233 228 222 214
319 319 318 318 317 316 315 314 313 313 314 311 308 307 307 304 302 299 296 292 287 281 274 266 258 252 246 241 237 235 232 230 231 229 229 230 228 232 238 242 235 224 218
320 320 319 319 318 317 315 315 314 314 313 310 310 309 308 306 303 301 297 293 288 283 276 267 259 252 246 234 221 229 235 230 228 228 225 222 215 220 223 236 247 244 228
320 320 319 318 317 316 316 314 314 314 312 311 310 310 309 307 305 302 299 295 291 286 278 268 258 251 247 235 212 215 230 231 228 226 223 225 214 201 216 216 222 237 243
319 319 318 318 318 318 317 316 315 313 312 311 312 313 311 310 308 303 300 296 292 285 278 268 259 251 243 224 210 208 225 231 228 224 222 224 224 212 211 216 214 217 220
318 317 317 317 318 317 319 318 314 313 312 313 316 316 313 311 309 306 305 302 296 287 280 270 258 248 239 218 203 203 224 225 226 224 221 220 221 200 195 221 222 216 214
320 318 317 317 318 321 321 317 314 313 315 317 316 313 310 309 310 309 308 306 300 290 284 272 260 246 234 210 196 202 224 223 221 219 219 215 223 190 185 220 227 223 213
320 320 318 317 320 321 319 314 313 313 315 315 312 310 311 310 310 311 310 308 304 296 286 276 261 242 227 201 192 200 222 224 221 219 215 210 187 191 193 220 232 230 219
322 323 321 319 320 321 318 314 313 315 315 314 312 311 313 313 314 314 312 311 305 297 289 279 261 234 216 207 193 196 219 242 229 225 222 199 164 183 196 215 230 224 217
322 323 321 319 320 321 319 313 313 315 315 314 313 313 314 315 316 317 318 316 310 302 292 280 257 229 213 198 187 194 206 220 233 234 223 143 154 177 201 218 217 214 219
323 324 322 320 320 321 318 315 314 317 316 314 314 315 316 316 319 320 321 324 324 321 310 289 261 228 213 201 194 198 200 202 219 227 183 160 169 209 227 199 204 218 221
323 323 321 318 317 320 319 318 319 320 316 314 315 317 318 316 316 320 327 329 336 345 320 317 306 264 221 177 183 220 208 208 206 204 205 207 201 205 210 215 213 211 211
322 322 322 320 319 320 319 321 324 322 317 315 317 318 317 317 317 322 326 290 289 343 316 307 308 311 88 122 170 238 264 208 181 205 210 211 209 210 210 210 209 210 211
Height
1526 1526 1525 1525 1524 1523 1522 1521 1520 1519 1517 1515 1514 1511 1509 1506 1503 1499 1496 1492 1490 1488 1487 1486 1488 1491 1492 1493 1495 1497 1499 1501 1503 1505 1506 1507 1507 1508 1509 1511 1513 1515 1516
1528 1527 1527 1526 1525 1523 1522 1521 1519 1518 1516 1514 1512 1509 1507 1504 1501 1498 1494 1491 1488 1485 1484 1483 1484 1486 1488 1488 1490 1492 1495 1497 1500 1502 1503 1503 1504 1503 1504 1505 1507 1509 1512
1529 1528 1527 1526 1525 1524 1522 1520 1518 1517 1515 1513 1511 1509 1506 1503 1500 1497 1493 1490 1487 1485 1483 1482 1483 1483 1483 1484 1486 1488 1490 1494 1496 1498 1499 1499 1498 1498 1500 1501 1502 1504 1507
1529 1528 1527 1526 1525 1523 1521 1519 1517 1515 1513 1511 1509 1506 1504 1501 1498 1495 1491 1488 1486 1483 1481 1480 1480 1479 1480 1480 1482 1484 1487 1489 1492 1493 1494 1496 1496 1497 1496 1498 1499 1500 1502
1528 1527 1527 1525 1524 1522 1520 1518 1515 1513 1510 1508 1506 1504 1502 1499 1497 1493 1490 1487 1484 1481 1479 1478 1477 1476 1476 1477 1478 1480 1483 1485 1487 1489 1490 1491 1493 1494 1495 1495 1497 1498 1499
1527 1526 1525 1524 1522 1521 1518 1516 1513 1510 1507 1505 1502 1500 1498 1495 1493 1490 1487 1485 1482 1479 1477 1475 1474 1473 1473 1473 1474 1476 1478 1480 1482 1484 1486 1488 1489 1490 1492 1493 1494 1495 1496
1525 1524 1523 1522 1520 1518 1515 1512 1509 1506 1504 1501 1498 1496 1493 1491 1488 1486 1484 1481 1479 1477 1474 1473 1471 1470 1469 1469 1470 1471 1472 1474 1476 1478 1481 1483 1485 1487 1488 1490 1490 1491 1493
1523 1522 1521 1519 1517 1514 1512 1509 1505 1502 1499 1497 1494 1491 1488 1486 1484 1482 1479 1477 1475 1473 1471 1468 1467 1466 1465 1465 1465 1465 1466 1468 1470 1472 1474 1477 1480 1482 1484 1486 1487 1488 1490
1521 1520 1518 1516 1513 1511 1508 1505 1501 1498 1494 1491 1488 1485 1482 1480 1477 1474 1472 1471 1469 1468 1466 1464 1463 1461 1460 1460 1460 1460 1460 1461 1463 1465 1468 1471 1474 1476 1479 1481 1483 1485 1485
1518 1517 1515 1512 1510 1507 1504 1500 1496 1492 1489 1485 1482 1479 1476 1473 1470 1468 1465 1463 1461 1460 1459 1458 1457 1456 1455 1455 1454 1454 1454 1455 1456 1458 1461 1464 1467 1470 1473 1476 1478 1480 1482
1516 1514 1511 1509 1506 1503 1499 1495 1491 1487 1483 1479 1475 1471 1468 1465 1462 1460 1457 1455 1453 1452 1451 1450 1450 1450 1449 1449 1449 1449 1449 1449 1450 1451 1453 1456 1460 1464 1467 1470 1472 1475 1477
1513 1510 1508 1505 1502 1498 1494 1490 1486 1481 1477 1473 1469 1464 1461 1457 1454 1452 1449 1447 1445 1443 1442 1442 1441 1442 1442 1443 1443 1443 1443 1444 1444 1445 1446 1448 1452 1456 1460 1463 1466 1469 1472
1509 1507 1504 1501 1497 1493 1489 1485 1480 1476 1471 1467 1462 1457 1453 1450 1446 1443 1440 1438 1436 1434 1433 1432 1432 1433 1434 1435 1436 1437 1437 1438 1438 1439 1441 1442 1444 1448 1452 1456 1459 1463 1466
1506 1503 1500 1497 1493 1489 1484 1479 1474 1470 1465 1460 1455 1451 1446 1442 1438 1435 1431 1429 1426 1424 1423 1422 1423 1423 1424 1426 1428 1429 1431 1432 1432 1433 1434 1436 1438 1440 1443 1448 1452 1456 1460
1502 1500 1496 1492 1488 1483 1479 1474 1469 1464 1459 1454 1449 1444 1440 1435 1431 1427 1423 1420 1417 1414 1413 1412 1412 1413 1414 1416 1418 1421 1423 1425 1427 1428 1429 1430 1432 1433 1436 1440 1444 1449 1453
1499 1496 1492 1487 1483 1478 1473 1468 1463 1458 1453 1448 1443 1438 1433 1428 1423 1419 1415 1411 1407 1405 1403 1401 1401 1402 1404 1406 1409 1412 1415 1418 1420 1422 1424 1425 1426 1428 1430 1433 1437 1442 1446
1496 1492 1487 1483 1478 1474 1468 1463 1458 1453 1448 1443 1437 1432 1427 1421 1416 1411 1406 1402 1398 1395 1392 1391 1390 1391 1393 1396 1399 1403 1407 1410 1413 1415 1418 1420 1422 1423 1425 1428 1431 1434 1439
1492 1488 1483 1478 1474 1469 1464 1458 1453 1448 1443 1438 1432 1427 1421 1415 1409 1403 1398 1393 1388 1385 1382 1380 1380 1381 1383 1386 1390 1394 1398 1402 1405 1409 1411 1414 1417 1418 1420 1423 1425 1428 1432
1489 1484 1479 1475 1469 1464 1459 1454 1448 1443 1438 1433 1427 1421 1415 1408 1402 1396 1390 1385 1380 1376 1373 1372 1371 1372 1374 1378 1382 1386 1390 1394 1398 1402 1405 1408 1411 1413 1415 1418 1420 1423 1425
1485 1480 1475 1470 1465 1460 1455 1449 1444 1439 1434 1428 1422 1415 1409 1403 1396 1390 1384 1378 1373 1369 1367 1365 1364 1364 1366 1370 1374 1379 1384 1387 1391 1395 1398 1402 1405 1408 1410 1413 1415 1417 1420
1481 1476 1471 1466 1462 1456 1451 1445 1440 1435 1429 1423 1417 1410 1404 1398 1392 1385 1379 1374 1369 1364 1361 1360 1359 1359 1361 1364 1368 1373 1377 1381 1385 1389 1392 1395 1398 1402 1405 1408 1410 1413 1416
1477 1472 1467 1462 1457 1452 1447 1441 1436 1431 1424 1418 1412 1406 1400 1394 1388 1382 1376 1370 1365 1361 1358 1356 1355 1355 1357 1360 1363 1368 1372 1376 1380 1384 1387 1390 1393 1396 1400 1403 1405 1408 1411
1473 1469 1464 1458 1454 1449 1443 1438 1432 1426 1420 1414 1408 1402 1396 1390 1384 1379 1373 1367 1363 1359 1357 1355 1354 1354 1355 1357 1360 1364 1368 1372 1376 1380 1383 1386 1388 1392 1395 1398 1400 1403 1406
1470 1465 1460 1455 1450 1445 1440 1434 1428 1422 1416 1410 1404 1398 1392 1387 1381 1376 1371 1366 1362 1359 1356 1354 1353 1353 1354 1355 1358 1361 1364 1368 1371 1375 1378 1381 1384 1388 1391 1393 1395 1398 1401
1467 1462 1457 1451 1446 1441 1436 1430 1425 1418 1412 1406 1401 1395 1390 1384 1379 1374 1370 1365 1362 1358 1356 1354 1353 1353 1353 1354 1356 1359 1362 1365 1369 1372 1375 1378 1381 1383 1386 1389 1391 1393 1396
1463 1458 1453 1448 1443 1437 1432 1426 1421 1415 1409 1403 1398 1392 1387 1382 1377 1373 1368 1364 1361 1358 1355 1354 1353 1352 1353 1354 1355 1357 1360 1363 1365 1369 1371 1374 1376 1379 1381 1384 1386 1388 1391